Vorticity
nan nan nan nan nan nan nan nan nan nan nan nan nan nan nan nan nan nan nan nan nan nan nan nan nan nan nan nan nan nan nan nan nan nan nan nan nan nan nan nan nan nan nan
nan 6 9 9 5 5 5 6 9 9 6 6 5 5 5 5 5 5 6 6 5 8 8 6 6 6 6 7 6 5 4 5 6 4 -1 0 5 8 9 11 7 7 nan
nan 5 7 5 5 5 5 4 6 8 6 5 5 5 5 5 6 6 5 7 7 6 6 8 9 7 5 6 6 6 6 6 4 1 -1 1 3 5 6 5 6 6 nan
nan 7 5 6 6 6 6 5 5 5 5 6 6 6 5 5 6 6 6 6 8 6 7 8 7 7 6 5 5 6 7 5 5 6 6 5 5 4 6 4 6 5 nan
nan 6 6 7 7 8 7 7 6 6 6 6 5 5 6 6 6 6 6 6 5 7 7 6 6 6 6 5 5 6 5 7 5 6 9 8 6 6 7 8 5 4 nan
nan 5 6 6 6 7 7 6 7 8 6 6 6 6 7 5 6 6 5 6 6 5 5 6 5 5 5 5 5 5 6 8 6 3 5 8 9 9 7 7 7 6 nan
nan 7 5 6 6 6 7 7 7 6 7 7 7 6 5 6 6 7 7 6 5 6 5 7 8 7 4 4 4 2 5 8 9 8 7 5 7 7 6 6 5 6 nan
nan 5 6 6 6 6 5 6 7 7 6 7 7 6 6 5 6 7 7 7 6 6 6 5 7 9 7 4 3 3 5 6 5 3 7 6 8 7 6 5 6 6 nan
nan 3 6 4 5 5 5 7 7 6 7 6 6 5 5 5 5 6 7 7 7 6 5 5 5 6 5 4 4 4 4 1 3 8 7 5 8 6 5 6 5 5 nan
nan 4 5 7 3 5 5 5 6 7 6 6 5 5 4 4 4 4 6 6 6 5 5 6 6 5 3 4 3 2 1 11 12 5 4 9 8 6 6 6 6 6 nan
nan 6 5 6 4 4 8 5 5 6 4 3 5 5 0 1 6 4 6 8 6 4 5 5 7 6 3 7 6 4 7 13 7 6 7 10 7 6 6 5 6 5 nan
nan 5 7 6 7 4 5 4 4 3 4 5 8 3 1 4 10 6 5 6 5 5 4 3 5 7 2 5 10 8 9 12 6 7 9 8 7 7 6 6 6 5 nan
nan 7 9 6 6 7 3 6 6 6 6 6 8 7 11 6 4 6 8 6 7 5 5 6 7 7 5 3 11 14 10 6 5 6 9 9 6 6 6 5 6 6 nan
nan 8 6 3 9 7 6 6 7 8 7 10 6 6 9 8 7 7 6 8 7 9 9 5 3 7 10 12 9 8 15 11 7 7 8 8 7 5 5 6 5 5 nan
nan 8 6 2 4 1 10 9 8 7 8 8 5 9 5 11 9 9 6 7 5 11 5 8 8 9 5 4 9 9 8 13 11 8 9 7 6 6 6 5 5 5 nan
nan 5 6 7 5 8 2 6 10 11 8 6 8 12 4 5 5 8 10 7 9 8 9 10 7 9 8 7 6 6 8 10 9 8 7 7 7 5 5 5 5 5 nan
nan 5 6 4 3 8 6 7 6 10 6 8 8 7 6 8 9 6 9 9 11 3 7 8 8 8 9 9 7 9 6 5 8 7 8 8 7 7 5 5 5 4 nan
nan 7 8 5 6 3 5 6 6 5 7 8 6 7 8 8 6 8 7 7 10 10 7 5 8 8 10 8 5 7 9 10 8 5 6 8 6 10 9 7 5 5 nan
nan 8 6 7 8 5 6 5 8 7 11 8 8 9 8 7 7 7 6 7 10 10 7 10 9 8 10 7 9 8 7 8 8 7 7 8 10 8 10 11 8 7 nan
nan 6 5 6 9 6 5 5 8 8 9 10 9 10 8 6 6 6 8 8 7 8 9 10 9 7 10 11 7 8 10 6 7 7 11 9 8 8 8 8 9 10 nan
nan 6 4 7 7 5 6 5 7 9 5 5 9 8 9 6 9 6 7 7 10 7 5 10 10 8 6 9 8 7 8 8 10 8 9 8 13 10 7 8 9 10 nan
nan 5 5 8 7 5 4 7 7 7 7 8 14 8 8 7 7 6 8 8 6 7 7 7 7 7 10 7 9 9 7 10 10 9 9 9 9 8 10 11 9 9 nan
nan 6 6 7 7 4 3 6 6 9 10 12 8 8 8 10 6 7 8 8 7 9 12 7 7 5 7 9 8 5 9 10 11 11 6 10 6 8 10 8 7 7 nan
nan 7 7 7 6 5 5 7 7 6 6 10 9 8 11 8 8 8 8 6 8 8 9 7 8 10 7 8 10 9 8 8 6 7 11 10 6 8 7 8 9 9 nan
nan 6 7 6 5 7 5 4 8 6 5 10 10 11 8 8 9 6 8 8 7 6 6 8 8 8 9 7 9 9 9 9 8 6 8 9 10 10 8 8 10 9 nan
nan nan nan nan nan nan nan nan nan nan nan nan nan nan nan nan nan nan nan nan nan nan nan nan nan nan nan nan nan nan nan nan nan nan nan nan nan nan nan nan nan nan nan
CAPE
879 704 1316 1455 1777 1748 2180 2421 2556 2672 2625 2663 2501 2040 1910 2309 1818 2035 1870 1232 1156 1514 1479 2120 2066 2201 2268 2202 2236 2364 2570 2780 2982 2810 2411 2251 2544 2309 2290 2306 2279 1408 1991
656 822 1822 2260 1967 1818 2187 2472 2595 2821 2405 2593 2375 2142 2237 2170 1706 1720 1792 1443 1299 1862 1531 1369 2058 2030 1873 1587 1907 2071 2427 2971 2908 2249 2167 2240 1789 1776 2497 2311 2011 1655 2026
703 1226 1646 2178 1983 2006 1991 2282 2399 2481 2396 2579 2450 2348 2320 1687 2036 1833 1794 1761 1470 1592 1578 1597 1581 1937 1992 1768 1891 2164 2274 2364 1954 1677 2465 1260 1895 2039 2091 2081 1937 1917 1691
725 1152 1210 2320 2605 2078 2080 2206 2344 2216 2136 2245 2463 2371 2294 1863 1714 1652 1614 1703 1956 1929 1847 1737 1707 1650 1779 2037 2215 2369 2098 2028 1545 1700 1789 1120 1270 2063 2029 1844 1928 1675 1349
130 597 1528 2393 2685 2397 2314 2644 2404 2363 2225 2378 2254 2283 2113 2084 2064 1765 1775 1877 1590 1727 1604 1244 1678 1516 1880 1861 1877 1827 1814 1698 1680 2068 1536 1464 1254 1752 1649 1742 1749 1913 1886
373 828 1834 2533 2400 2372 2254 2311 2378 2410 2340 2250 2203 2132 2059 2008 1802 1786 1463 1574 1704 1673 1471 1290 1272 1403 1423 1337 1507 1662 1771 1854 1743 1491 1331 1883 1597 1864 1954 1881 1909 1932 1857
630 947 1429 2573 2290 2407 2124 2567 2300 2313 2231 2024 2218 2423 2201 1858 1916 2036 1949 1484 1703 1515 1261 1309 1279 1253 1282 1493 1025 1287 1550 1938 1857 1704 1611 1654 1902 2450 1817 1939 1378 1608 1884
309 521 1119 1972 2032 2036 2213 2275 2238 2300 2141 2364 2267 2233 2080 2334 2169 1756 1416 1449 1431 1478 1377 1308 1498 1394 1315 1356 922 1012 1189 1686 1563 1715 1547 1538 2090 2330 2008 1440 1500 1708 991
120 686 843 1127 1905 2029 2123 2194 2294 2309 2360 2688 2546 2449 2566 2222 1786 1654 1825 1572 1425 1375 1240 1331 1335 1515 1526 1307 934 1001 1198 2154 1415 1112 1318 1568 2127 2094 1704 2013 1878 1780 1740
138 413 1015 929 1409 1559 1751 2007 2106 2293 2537 1989 2103 2477 2263 1986 1240 1369 2176 1908 1195 1246 1270 1430 1518 1564 1560 1292 1060 1160 1580 1662 799 1240 1402 1801 2254 2034 1833 1985 1920 1616 1771
79 424 449 502 1258 2007 1941 1924 2028 2039 2047 2217 2027 2025 1835 993 1305 1230 1906 1926 1122 1101 1188 1221 1287 1818 1565 1148 1133 1244 1510 1357 463 1086 1261 2172 2164 1945 1876 1840 1483 1542 1336
8 82 188 530 929 1429 868 2091 2138 1795 1702 1573 1533 1310 1805 2033 1717 938 1439 2065 1476 1247 1154 1225 1364 1386 1310 1189 1272 1573 1615 392 528 1056 1488 2331 2275 1849 1705 1591 1621 1671 1461
20 31 272 874 799 1186 1311 1967 1778 1712 1916 1664 2037 956 1724 1911 1645 449 1546 1119 1374 1577 901 1265 1440 1743 1054 1207 1096 1479 1141 642 821 1002 1730 2243 2176 1401 1807 1358 1584 1373 1235
59 12 147 367 1727 976 1196 1627 590 1678 1567 1235 1377 1752 2790 1715 925 130 1071 1622 612 1554 1454 249 1138 962 139 278 1441 752 533 427 424 897 1790 2286 2166 1524 1408 1550 1563 1429 1336
20 45 181 428 1587 1150 1779 1767 1124 627 1216 1419 1400 1884 531 1420 826 778 1118 674 751 1121 523 726 999 1555 452 843 1243 911 684 958 264 331 963 1941 2061 1893 1583 1155 1131 1091 1096
19 159 503 588 1344 1455 1641 1384 639 1339 999 1132 1022 1319 471 1508 1070 1436 1016 1019 235 608 1541 1655 1059 1327 245 863 420 856 516 1061 726 392 450 933 1370 1528 1593 884 675 588 583
34 218 415 591 812 1966 1404 2317 2495 1499 1218 1031 1695 2124 1809 1400 1680 2489 1236 2281 2274 138 2191 1006 1510 1177 886 888 1045 765 1398 1343 1034 1279 542 732 987 1224 1045 835 713 510 526
45 504 233 56 538 1194 1225 2271 822 1562 1245 1797 1883 1789 1931 2513 2642 923 808 210 1210 2463 113 102 1283 640 910 347 828 247 524 1073 1307 1312 1529 1114 1199 859 1263 1249 1117 875 556
317 717 387 885 796 1080 2244 1689 353 1447 1760 699 1754 1695 2608 2554 2499 603 86 490 2387 517 1527 736 1558 1077 52 893 215 313 711 1013 517 753 1408 1802 1719 817 1001 1660 1751 1634 950
330 554 530 1064 1533 1708 2153 2625 1794 1332 1341 2462 2216 1787 2824 2611 2297 2201 1719 2672 2785 583 1390 1973 409 989 1067 210 39 130 112 1024 660 1009 521 989 1263 1449 1353 887 1311 1065 1514
262 360 1100 1539 1943 1432 1624 1531 1131 1306 487 1937 1398 1549 3020 2865 2473 3326 2578 2218 1696 170 625 1915 1459 670 858 467 472 918 589 337 312 1005 624 486 402 1075 1202 1505 1074 1144 673
274 384 1111 1575 1910 1379 1659 1852 2134 958 559 126 1772 1990 2578 2687 2857 2992 2735 2557 1441 860 1729 1934 393 712 1662 954 1050 704 565 377 670 14 841 601 656 476 486 624 1010 1185 1400
338 439 841 1581 1770 1485 2044 1638 2619 2871 2047 912 2115 2354 2733 2914 2770 2698 2867 2639 2405 2072 2359 2006 1311 2207 1602 641 1124 1171 787 129 656 665 339 844 821 400 948 940 844 789 722
425 565 885 1607 2069 1440 2233 1432 2381 1967 2029 1365 2113 1602 2423 3066 2854 3035 2972 2966 2698 897 2396 2441 2123 1913 444 1385 1286 840 988 789 541 463 1191 1066 864 809 967 1467 774 850 1086
472 555 885 1368 2145 1430 1529 2104 1830 2151 1593 2085 1427 1544 2669 3473 3287 2645 2893 3187 2765 2785 2833 2453 2104 2307 2433 1387 1624 1065 1261 1369 1749 900 696 1145 1030 1156 1379 1199 1128 933 1195
346 458 917 1304 1741 1786 1443 1619 2367 1594 2404 2047 2046 1731 2327 2555 2983 3213 2896 3243 3433 2611 2404 2854 3064 2753 2760 2999 1923 2062 913 964 1149 1210 1087 949 1129 977 1118 1263 921 939 1374